STARLINK-5720 (55619 NORAD) Tracking and Keplerian Element Data

This shows tracking and keplerian element data for the satellite.

Feedback or suggestion? Click here.




ElementValue
Catalog55619
NameSTARLINK-5720
Epoch Orbit311
Epoch Day62.91747101
Epoch Year2023
RAAN237.3991
Inclination42.9992
Eccentricity0.0001539
Argument of Perigee257.1377
Mean Anonmoly102.9319
Mean Motion15.71365135
Decay Rate0.00099054
L11 55619U 23020BC 23062.91747101 .00099054 00000+0 74955-3 0 9995
L22 55619 42.9992 237.3991 0001539 257.1377 102.9319 15.71365135 3114



Live tracking and technical data element details for STARLINK-5720 (NORAD 55619). STARLINK-5720 can be tracked NOW for your location showing map with azimuth and elevation plus other details from your city location.







IsCatalogInMostPopularTable: catalog: 55619, numindb: 4
Update: records affected: 1



GetName: 55619 STARLINK-5720

Hit Count: updated at: Wed, 22 Mar 2023 16:40:16 GMT